Powrót do katalogu

BD-21

AktywnyNawigacjaMEO
NORAD 41315·PAYLOAD·🇨🇳 China

Wystrzelony Feb 1, 2016 z Xichang Satellite Launch Center

Loading…

Następne Przeloty (najbliższe 24 godziny)

TLE

ŚwieżeSource: Space-Track

Epoka: Sep 12, 2026, 00:27 UTC

1 41315U 16006A   26255.01900817 -.00000038  00000-0  00000-0 0  9995
2 41315  56.7856  60.7838 0002296 298.9998  60.9964  1.86230776 72214

Śledź BD-21 w czasie rzeczywistym z AllMySat

Download on the App Store